• In Belarus
  • List of Countries
  • For 7 days
  • Water Temperature
  • Weather Map
  • Weather Widgets
  • user-avatar
    Login

    Hourly Weather Millau

    Today, 25 May, Monday

    Time Temperature Precipitation Wind Pressure Humidity
    00:00 +9°C° 0 mm 1 mps 713 mmHg 92%
    01:00 +9°C° 0 mm 1 mps 713 mmHg 90%
    02:00 +8°C° 0 mm 1 mps 713 mmHg 88%
    03:00 +8°C° 0 mm 1 mps 713 mmHg 86%
    04:00 +9°C° 0 mm 1 mps 713 mmHg 81%
    05:00 +10°C° 0 mm 1 mps 713 mmHg 76%
    06:00 +11°C° 0 mm 1 mps 713 mmHg 71%
    07:00 +14°C° 0 mm 1 mps 714 mmHg 62%
    08:00 +18°C° 0 mm 1 mps 714 mmHg 53%
    09:00 +21°C° 0 mm 1 mps 715 mmHg 44%
    10:00 +23°C° 0 mm 1 mps 715 mmHg 41%
    11:00 +24°C° 0 mm 1 mps 714 mmHg 38%
    12:00 +26°C° 0 mm 1 mps 714 mmHg 36%
    13:00 +26°C° 0 mm 1 mps 714 mmHg 37%
    14:00 +25°C° 0 mm 1 mps 714 mmHg 38%
    15:00 +25°C° 0 mm 2 mps 714 mmHg 39%
    16:00 +24°C° 0 mm 1 mps 714 mmHg 48%
    17:00 +23°C° 0 mm 1 mps 713 mmHg 57%
    18:00 +21°C° 0 mm 1 mps 713 mmHg 66%
    19:00 +19°C° 0 mm 1 mps 713 mmHg 71%
    20:00 +16°C° 0 mm 2 mps 713 mmHg 77%
    21:00 +14°C° 0 mm 2 mps 713 mmHg 83%
    22:00 +13°C° 0 mm 2 mps 713 mmHg 86%
    23:00 +12°C° 0 mm 2 mps 713 mmHg 89%

    Tomorrow, 26 May, Tuesday

    Time Temperature Precipitation Wind Pressure Humidity
    00:00 +10°C° 0 mm 2 mps 713 mmHg 91%
    01:00 +10°C° 0 mm 2 mps 713 mmHg 91%
    02:00 +9°C° 0 mm 2 mps 712 mmHg 91%
    03:00 +9°C° 0 mm 2 mps 712 mmHg 91%
    04:00 +10°C° 0 mm 2 mps 712 mmHg 87%
    05:00 +12°C° 0 mm 2 mps 712 mmHg 82%
    06:00 +12°C° 0 mm 2 mps 712 mmHg 78%
    07:00 +15°C° 0 mm 2 mps 713 mmHg 67%
    08:00 +18°C° 0 mm 2 mps 713 mmHg 56%
    09:00 +20°C° 0 mm 2 mps 714 mmHg 45%
    10:00 +23°C° 0 mm 2 mps 714 mmHg 40%
    11:00 +24°C° 0 mm 2 mps 714 mmHg 36%
    12:00 +26°C° 0 mm 2 mps 714 mmHg 31%
    13:00 +26°C° 0 mm 2 mps 714 mmHg 32%
    14:00 +26°C° 0 mm 3 mps 714 mmHg 33%
    15:00 +26°C° 0 mm 3 mps 714 mmHg 34%
    16:00 +24°C° 0 mm 3 mps 714 mmHg 43%
    17:00 +23°C° 0 mm 2 mps 713 mmHg 51%
    18:00 +20°C° 0 mm 2 mps 713 mmHg 60%
    19:00 +18°C° 0 mm 2 mps 713 mmHg 64%
    20:00 +15°C° 0 mm 2 mps 713 mmHg 68%
    21:00 +13°C° 0 mm 2 mps 713 mmHg 72%
    22:00 +12°C° 0 mm 2 mps 713 mmHg 75%
    23:00 +12°C° 0 mm 1 mps 713 mmHg 78%

    Day after tomorrow, 27 May, Wednesday

    Time Temperature Precipitation Wind Pressure Humidity
    00:00 +11°C° 0 mm 1 mps 713 mmHg 81%
    01:00 +10°C° 0 mm 1 mps 713 mmHg 83%
    02:00 +10°C° 0 mm 1 mps 713 mmHg 85%
    03:00 +10°C° 0 mm 1 mps 712 mmHg 88%
    04:00 +11°C° 0 mm 1 mps 713 mmHg 84%
    05:00 +12°C° 0 mm 1 mps 713 mmHg 80%
    06:00 +13°C° 0 mm 1 mps 713 mmHg 75%
    07:00 +16°C° 0 mm 1 mps 714 mmHg 68%
    08:00 +18°C° 0 mm 2 mps 714 mmHg 61%
    09:00 +20°C° 0 mm 2 mps 715 mmHg 53%
    10:00 +21°C° 0 mm 2 mps 715 mmHg 52%
    11:00 +23°C° 0 mm 2 mps 715 mmHg 51%
    12:00 +24°C° 0 mm 3 mps 715 mmHg 49%
    13:00 +24°C° 0 mm 3 mps 715 mmHg 51%
    14:00 +22°C° 0 mm 3 mps 714 mmHg 52%
    15:00 +22°C° 0 mm 3 mps 714 mmHg 53%
    16:00 +21°C° 0 mm 2 mps 714 mmHg 59%
    17:00 +20°C° 0 mm 2 mps 714 mmHg 65%
    18:00 +19°C° 0 mm 2 mps 714 mmHg 71%
    19:00 +17°C° 0 mm 2 mps 713 mmHg 75%
    20:00 +15°C° 0 mm 1 mps 713 mmHg 79%
    21:00 +13°C° 0 mm 1 mps 713 mmHg 84%
    22:00 +13°C° 0 mm 1 mps 713 mmHg 84%
    23:00 +12°C° 0 mm 1 mps 713 mmHg 84%

    28 May, Thursday

    Time Temperature Precipitation Wind Pressure Humidity
    00:00 +12°C° 0 mm 1 mps 713 mmHg 84%
    01:00 +12°C° 0 mm 1 mps 712 mmHg 86%
    02:00 +12°C° 0 mm 1 mps 712 mmHg 87%
    03:00 +11°C° 0 mm 1 mps 712 mmHg 88%
    04:00 +12°C° 0 mm 1 mps 712 mmHg 85%
    05:00 +14°C° 0 mm 1 mps 712 mmHg 82%
    06:00 +15°C° 0 mm 1 mps 712 mmHg 79%
    07:00 +18°C° 0 mm 1 mps 712 mmHg 70%
    08:00 +20°C° 0 mm 1 mps 712 mmHg 61%
    09:00 +23°C° 0 mm 1 mps 713 mmHg 52%
    10:00 +24°C° 0 mm 1 mps 712 mmHg 49%
    11:00 +25°C° 0 mm 1 mps 712 mmHg 45%
    12:00 +26°C° 0 mm 1 mps 712 mmHg 41%
    13:00 +26°C° 0 mm 1 mps 711 mmHg 42%
    14:00 +26°C° 0 mm 1 mps 711 mmHg 42%
    15:00 +26°C° 0 mm 1 mps 711 mmHg 43%
    16:00 +24°C° 0 mm 1 mps 710 mmHg 51%
    17:00 +23°C° 0 mm 1 mps 710 mmHg 59%
    18:00 +22°C° 0 mm 1 mps 709 mmHg 68%
    19:00 +19°C° 0 mm 1 mps 709 mmHg 74%
    20:00 +16°C° 0 mm 1 mps 709 mmHg 80%
    21:00 +14°C° 0 mm 1 mps 709 mmHg 87%
    22:00 +14°C° 0 mm 1 mps 708 mmHg 87%
    23:00 +14°C° 0 mm 1 mps 708 mmHg 88%

    29 May, Friday

    Time Temperature Precipitation Wind Pressure Humidity
    00:00 +13°C° 0 mm 1 mps 708 mmHg 88%
    01:00 +13°C° 0 mm 1 mps 708 mmHg 88%
    02:00 +13°C° 0 mm 1 mps 707 mmHg 88%
    03:00 +12°C° 0 mm 1 mps 707 mmHg 88%
    04:00 +13°C° 0 mm 1 mps 707 mmHg 85%
    05:00 +14°C° 0 mm 1 mps 707 mmHg 81%
    06:00 +16°C° 0 mm 1 mps 707 mmHg 77%
    07:00 +19°C° 0 mm 1 mps 707 mmHg 69%
    08:00 +21°C° 0 mm 1 mps 707 mmHg 60%
    09:00 +24°C° 0 mm 1 mps 707 mmHg 52%
    10:00 +25°C° 0 mm 1 mps 707 mmHg 47%
    11:00 +26°C° 0 mm 2 mps 707 mmHg 43%
    12:00 +27°C° 0 mm 2 mps 707 mmHg 38%
    13:00 +27°C° 0 mm 3 mps 706 mmHg 39%
    14:00 +27°C° 0 mm 3 mps 706 mmHg 40%
    15:00 +27°C° 0 mm 3 mps 706 mmHg 40%
    16:00 +25°C° 0 mm 3 mps 706 mmHg 49%
    17:00 +24°C° 0 mm 2 mps 705 mmHg 58%
    18:00 +23°C° 0 mm 2 mps 705 mmHg 66%
    19:00 +21°C° 0 mm 1 mps 705 mmHg 73%
    20:00 +18°C° 0 mm 1 mps 705 mmHg 79%
    21:00 +15°C° 0 mm 1 mps 705 mmHg 86%
    22:00 +14°C° 0 mm 1 mps 705 mmHg 86%
    23:00 +14°C° 0 mm 1 mps 705 mmHg 87%

    30 May, Saturday

    Time Temperature Precipitation Wind Pressure Humidity
    00:00 +13°C° 0 mm 1 mps 705 mmHg 87%
    01:00 +13°C° 0 mm 1 mps 705 mmHg 86%
    02:00 +12°C° 0 mm 1 mps 704 mmHg 84%
    03:00 +12°C° 0 mm 1 mps 704 mmHg 82%
    04:00 +13°C° 0 mm 1 mps 704 mmHg 80%
    05:00 +13°C° 0 mm 1 mps 705 mmHg 77%
    06:00 +14°C° 0 mm 1 mps 705 mmHg 75%
    07:00 +18°C° 0 mm 1 mps 705 mmHg 66%
    08:00 +19°C° 0 mm 2 mps 705 mmHg 58%
    09:00 +23°C° 0 mm 2 mps 705 mmHg 49%
    10:00 +24°C° 0 mm 2 mps 706 mmHg 45%
    11:00 +25°C° 0 mm 3 mps 706 mmHg 41%
    12:00 +26°C° 0 mm 3 mps 706 mmHg 37%
    13:00 +26°C° 0 mm 3 mps 706 mmHg 38%
    14:00 +26°C° 0 mm 3 mps 706 mmHg 38%
    15:00 +26°C° 0 mm 3 mps 705 mmHg 39%
    16:00 +25°C° 0 mm 2 mps 705 mmHg 48%
    17:00 +23°C° 0 mm 2 mps 705 mmHg 57%
    18:00 +21°C° 0 mm 2 mps 705 mmHg 66%
    19:00 +20°C° 0 mm 1 mps 705 mmHg 73%
    20:00 +18°C° 0 mm 1 mps 706 mmHg 81%
    21:00 +15°C° 0 mm 1 mps 706 mmHg 88%
    22:00 +14°C° 0 mm 1 mps 706 mmHg 88%
    23:00 +14°C° 0 mm 1 mps 706 mmHg 89%
    Show more